Change the Weather History Date:

Thursday, December 5, 2013

  Actual Average Record
Temperature  
Mean Temperature 74 °F 74 °F  
Max Temperature 79 °F 79 °F 83 °F (1959)
Min Temperature 68 °F 69 °F 58 °F (1956)
Degree Days  
Heating Degree Days 0 0  
Month to date heating degree days 0 0  
Since 1 July heating degree days 0 0  
Cooling Degree Days 9 9  
Month to date cooling degree days 44 45  
Year to date cooling degree days 3469 3736  
Growing Degree Days 23 (Base 50)    
Moisture  
Dew Point 67 °F    
Average Humidity 79    
Maximum Humidity 90    
Minimum Humidity 67    
Precipitation  
Precipitation T in 0.16 in 3.77 in (1961)
Month to date precipitation 3.57 0.79  
Year to date precipitation 35.00 32.64  
Snow  
Snow 0.00 in - - ()
Month to date snowfall 0.0  
Since 1 July snowfall 0.0  
Snow Depth 0.00 in    
Sea Level Pressure  
Sea Level Pressure 29.99 in    
Wind  
Wind Speed 5 mph (NNW)    
Max Wind Speed 12 mph    
Max Gust Speed 15 mph    
Visibility 10 miles    
Events      
T = Trace of Precipitation, MM = Missing Value Source: NWS Daily Summary

Daily Weather History Graph

Daily Weather History Graph

Search for Another Location

Airport or City:

Trip Planner

Search our weather history database for the weather conditions in past years. The results will help you decide how hot, cold, wet, or windy it might be!

Date:

Astronomy

Dec. 05, 2013 Rise Set
Actual Time 7:02 AM HST 5:53 PM HST
Civil Twilight 6:38 AM HST 6:17 PM HST
Nautical Twilight 6:10 AM HST 6:45 PM HST
Astronomical Twilight 5:43 AM HST 7:12 PM HST
Moon 9:42 AM HST (12/5) 9:15 PM HST (12/5)
Length of Visible Light 11h 39m
Length of Day
10h 51m
Waxing Crescent, 12% of the Moon is Illuminated
Dec 5
Waxing Crescent
Dec 9
First Quarter
Dec 16
Full
Dec 25
Last Quarter
Jan 1
New

Hourly Weather History & Observations

Time (HST) Temp. Dew Point Humidity Pressure Visibility Wind Dir Wind Speed Gust Speed Precip Events Conditions
12:06 AM 71.6 °F 68.0 °F 88% 29.99 in 10.0 mi West 3.5 mph - N/A   Mostly Cloudy
12:13 AM 71.6 °F 68.0 °F 88% 29.99 in 10.0 mi WSW 3.5 mph - N/A   Mostly Cloudy
12:24 AM 71.6 °F 68.0 °F 88% 29.99 in 10.0 mi Calm Calm - N/A   Overcast
12:41 AM 69.8 °F 66.2 °F 88% 29.98 in 10.0 mi Calm Calm - N/A   Mostly Cloudy
12:53 AM 70.0 °F 66.9 °F 90% 29.97 in 10.0 mi West 3.5 mph - N/A   Mostly Cloudy
1:05 AM 69.8 °F 66.2 °F 88% 29.98 in 10.0 mi West 6.9 mph - N/A   Mostly Cloudy
1:53 AM 69.1 °F 66.9 °F 93% 29.97 in 10.0 mi West 4.6 mph - N/A   Mostly Cloudy
2:00 AM 69.8 °F 66.2 °F 88% 29.98 in 10.0 mi West 5.8 mph - N/A   Scattered Clouds
2:53 AM 70.0 °F 66.9 °F 90% 29.96 in 10.0 mi WNW 8.1 mph - N/A   Mostly Cloudy
3:20 AM 69.8 °F 66.2 °F 88% 29.97 in 10.0 mi West 5.8 mph - N/A   Mostly Cloudy
3:53 AM 70.0 °F 66.0 °F 87% 29.96 in 10.0 mi West 8.1 mph - N/A   Mostly Cloudy
4:12 AM 69.8 °F 66.2 °F 88% 29.97 in 10.0 mi WNW 6.9 mph - N/A   Mostly Cloudy
4:53 AM 69.1 °F 64.9 °F 87% 29.97 in 10.0 mi West 6.9 mph - N/A   Scattered Clouds
5:53 AM 68.0 °F 64.9 °F 90% 29.97 in 10.0 mi West 6.9 mph - N/A   Clear
6:53 AM 68.0 °F 64.9 °F 90% 29.99 in 10.0 mi West 5.8 mph - N/A   Clear
7:53 AM 71.1 °F 66.0 °F 84% 30.00 in 10.0 mi West 8.1 mph - N/A   Clear
8:53 AM 72.0 °F 66.9 °F 84% 30.02 in 10.0 mi West 8.1 mph - N/A   Clear
9:53 AM 77.0 °F 68.0 °F 74% 30.04 in 10.0 mi Calm Calm - N/A   Scattered Clouds
10:53 AM 75.9 °F 66.9 °F 74% 30.02 in 10.0 mi Calm Calm - N/A   Clear
11:53 AM 78.1 °F 68.0 °F 71% 30.00 in 10.0 mi Calm Calm - N/A   Clear
12:53 PM 78.1 °F 66.0 °F 66% 29.97 in 10.0 mi ENE 3.5 mph - N/A   Clear
1:53 PM 77.0 °F 66.9 °F 71% 29.94 in 10.0 mi ENE 5.8 mph - N/A   Clear
2:53 PM 77.0 °F 66.9 °F 71% 29.93 in 10.0 mi NE 4.6 mph - N/A   Clear
3:53 PM 77.0 °F 66.0 °F 69% 29.94 in 10.0 mi NE 4.6 mph - N/A   Partly Cloudy
4:53 PM 77.0 °F 66.0 °F 69% 29.96 in 10.0 mi NE 5.8 mph - N/A   Clear
5:46 PM 73.4 °F 66.2 °F 78% 29.97 in 10.0 mi NE 6.9 mph - 0.00 in   Partly Cloudy
5:53 PM 73.9 °F 66.9 °F 79% 29.97 in 10.0 mi NE 8.1 mph - 0.00 in   Clear
6:53 PM 73.0 °F 66.9 °F 81% 29.99 in 10.0 mi North 6.9 mph - N/A   Clear
7:53 PM 72.0 °F 66.0 °F 81% 30.00 in 10.0 mi North 6.9 mph - N/A   Clear
8:16 PM 71.6 °F 66.2 °F 83% 30.00 in 10.0 mi North 8.1 mph - N/A   Partly Cloudy
8:53 PM 72.0 °F 66.9 °F 84% 30.01 in 10.0 mi North 5.8 mph - N/A   Clear
9:44 PM 71.6 °F 66.2 °F 83% 30.02 in 10.0 mi NNE 5.8 mph - N/A   Partly Cloudy
9:53 PM 73.0 °F 68.0 °F 84% 30.01 in 10.0 mi North 5.8 mph - N/A   Partly Cloudy
10:08 PM 71.6 °F 66.2 °F 83% 30.02 in 10.0 mi NNW 6.9 mph - N/A   Mostly Cloudy
10:44 PM 73.4 °F 68.0 °F 83% 30.02 in 10.0 mi ENE 5.8 mph - N/A   Scattered Clouds
10:53 PM 73.0 °F 66.9 °F 81% 30.01 in 10.0 mi NE 6.9 mph - N/A   Partly Cloudy
11:53 PM 69.1 °F 66.0 °F 90% 30.01 in 10.0 mi WNW 6.9 mph - N/A   Mostly Cloudy